Location: Presov
(49.0000°N, 21.2500°E)
Time: 00:40:58
(UTC+02:00)

Transit 2A Rocket - Pass Details

Date: 23 April 2021
Orbit: 594 x 908 km, 66.7° (Epoch: 05 May)

Event Time Altitude Azimuth Distance (km) Brightness Sun altitude
Rises 22:42:53 0° 327° (NNW) 2,868 9.4 -23.5°
Reaches altitude 10° 22:45:09 10° 333° (NNW) 1,982 8.2 -23.7°
Maximum altitude 22:49:27 47° 48° (NE) 857 5.3 -24.1°
Enters shadow 22:49:55 45° 67° (ENE) 883 5.2 -24.1°
Drops below altitude 10° 22:54:01 10° 122° (ESE) 2,109 - -24.4°
Sets 22:56:30 0° 129° (SE) 3,072 - -24.6°
